Theta_e
318 322 326 327 328 329 330 330 330 329 329 329 329 329 328 328 328 327 326 325 324 322 322 322 323 323 323 321 320 317 315 311 300 295 296 295 293 289 288 288 287 286 286
308 308 309 310 314 318 324 327 329 330 330 330 329 329 329 329 327 327 326 326 324 322 321 320 321 322 320 320 320 317 314 310 303 292 292 292 290 289 288 288 287 286 286
308 309 309 309 308 308 309 309 313 320 327 329 329 329 329 328 327 327 327 326 325 323 322 319 319 318 315 317 318 315 310 307 301 295 291 290 289 289 288 288 286 286 286
308 308 308 309 309 309 309 309 310 313 319 323 325 328 327 328 328 327 326 325 324 322 321 319 317 316 318 319 316 312 307 302 296 295 292 290 289 289 288 288 286 286 286
308 308 308 308 309 309 309 309 309 309 310 314 317 319 321 324 324 324 324 323 321 319 318 317 317 316 319 319 315 307 303 296 294 293 291 289 289 288 288 288 286 285 285
307 307 307 308 308 308 308 308 308 309 309 311 310 310 313 316 318 319 320 320 319 317 315 315 313 307 308 310 307 302 299 293 291 291 290 289 289 288 288 287 286 285 284
306 306 306 307 307 307 307 307 307 306 305 304 304 306 308 311 312 315 316 314 316 314 313 309 307 305 300 297 297 297 295 292 292 291 290 289 289 289 288 287 285 285 284
305 305 306 306 305 305 304 304 304 301 302 302 302 302 304 307 309 310 309 307 308 307 306 305 303 300 300 303 297 294 292 290 289 289 289 289 288 288 288 287 285 284 284
304 304 304 304 304 303 303 300 301 302 304 304 304 304 303 304 303 305 305 303 302 301 301 300 298 300 298 293 293 292 289 289 288 288 288 287 287 290 287 285 285 284 283
301 302 302 302 302 302 299 299 302 303 303 302 302 301 299 301 301 302 302 299 298 297 294 294 294 293 292 293 292 290 289 288 287 287 287 288 290 287 285 285 285 285 284
299 300 299 299 299 298 297 299 301 301 300 299 298 299 298 296 296 295 295 296 296 295 293 292 291 293 293 292 290 289 289 288 286 288 289 289 287 285 285 285 285 285 284
297 297 297 297 297 296 296 298 298 296 296 295 294 295 294 294 293 293 292 292 292 293 292 292 292 293 290 290 289 288 287 286 288 290 288 286 285 285 284 284 284 283 282
297 297 297 296 294 294 295 295 294 294 293 292 292 292 292 292 292 291 290 290 290 290 290 289 288 288 288 288 287 287 286 286 290 288 287 287 286 284 284 284 283 282 281
295 294 294 292 292 293 293 293 292 292 292 291 291 290 290 290 290 290 289 289 290 289 289 289 289 288 287 287 287 286 286 288 290 290 287 285 284 284 284 284 283 282 281
293 292 290 289 291 291 292 292 291 291 291 291 291 291 290 289 290 290 290 290 290 289 288 287 287 287 287 287 287 287 287 287 287 287 286 285 285 285 284 284 283 281 281
291 290 290 289 289 289 289 289 289 289 289 290 290 290 290 290 290 290 290 289 288 288 288 287 286 286 286 286 286 287 286 286 287 286 285 285 284 284 283 283 283 281 280
290 289 289 289 289 289 289 288 288 288 288 288 288 288 288 288 289 289 289 289 288 288 287 286 286 286 286 286 287 286 287 288 287 286 285 284 284 283 282 281 281 280 278
289 288 288 288 288 288 287 287 287 286 286 287 287 288 288 288 288 288 289 289 288 287 287 287 286 286 286 286 287 288 287 287 286 285 284 283 282 282 281 280 278 278 277
288 287 287 287 287 287 286 286 286 286 286 287 287 287 288 287 287 288 288 288 288 287 288 287 287 287 287 288 288 287 287 286 285 284 283 282 281 280 279 278 278 277 276
285 284 284 284 283 284 284 284 285 285 285 285 285 285 285 286 286 286 286 287 287 287 287 287 287 287 287 287 287 286 285 284 284 283 282 281 280 279 278 277 276 275 274
285 284 283 283 282 282 281 281 281 282 281 281 281 281 282 284 284 283 283 284 284 283 283 283 284 284 284 284 285 284 283 283 282 281 280 279 278 277 277 275 275 274 274
285 284 283 283 281 281 280 280 280 280 279 279 279 279 279 280 280 280 280 280 280 279 279 279 279 279 279 279 279 279 278 278 277 277 276 276 276 275 275 274 273 273 272
282 282 281 280 280 280 279 279 279 278 277 277 276 276 277 276 276 275 275 275 275 275 275 275 275 275 275 275 275 275 274 274 274 273 273 273 273 273 272 272 271 271 271
279 279 278 278 277 277 277 276 276 276 275 275 274 274 273 272 272 272 272 272 272 272 272 272 272 272 272 272 272 272 272 272 271 270 270 270 270 270 271 270 270 270 270
276 276 275 275 275 274 274 273 273 272 272 272 271 271 271 271 271 270 270 269 269 269 269 269 269 269 269 269 269 269 270 270 270 269 269 268 268 268 269 269 269 268 268
272 272 272 272 271 271 271 271 271 271 271 270 270 270 269 269 269 268 268 268 268 268 268 268 267 267 267 267 267 267 268 268 268 268 267 267 267 266 267 267 267 267 266
Wind_Speed
20 24 28 33 35 37 38 39 39 39 39 39 42 42 40 42 44 44 43 41 40 41 41 43 47 45 43 41 40 35 33 29 10 11 23 21 27 24 21 16 14 11 10
13 17 22 25 29 32 35 35 34 36 38 39 40 41 41 41 42 42 43 43 41 40 41 43 45 45 43 41 40 37 36 33 19 16 18 24 26 24 20 16 15 12 12
12 15 18 21 22 25 28 30 30 31 33 36 40 41 41 40 40 42 44 42 46 45 46 46 45 46 40 42 44 43 41 34 27 22 17 27 25 26 23 18 17 14 13
13 16 20 19 19 20 21 22 23 24 25 26 30 34 36 37 38 39 40 40 44 44 45 47 43 48 46 49 45 44 38 35 27 25 20 29 25 26 23 22 16 16 12
14 17 20 17 17 17 18 18 20 22 24 25 26 26 28 29 29 32 36 39 41 41 41 43 45 49 51 52 49 44 38 35 30 28 22 16 20 19 25 19 16 13 12
15 19 18 17 16 16 16 16 17 18 18 19 21 23 27 27 28 28 32 36 39 40 41 42 42 39 42 40 41 35 35 31 30 24 21 20 22 23 22 20 16 9 5
14 16 15 14 15 15 15 15 16 17 18 19 20 20 22 23 24 28 32 35 37 39 38 36 37 38 30 25 26 25 26 31 32 34 33 28 24 26 24 19 19 14 8
11 10 9 11 13 14 14 15 16 16 17 18 20 21 23 23 22 22 23 26 31 32 31 32 33 31 27 31 31 23 24 22 18 23 21 20 16 18 15 22 18 14 12
7 7 7 9 12 14 15 14 13 14 15 16 17 19 21 22 20 19 18 20 23 23 24 24 26 26 29 27 24 22 24 21 19 16 14 14 14 12 19 20 18 14 6
4 6 8 9 8 11 12 10 11 14 16 18 18 18 20 21 18 18 18 17 18 17 14 14 12 14 18 19 24 28 26 22 20 16 15 12 11 16 18 20 17 18 11
3 4 4 5 5 6 7 9 11 12 13 14 14 14 16 16 16 15 17 17 19 17 16 16 17 18 19 21 25 24 24 20 17 13 11 12 15 19 22 22 21 21 21
2 2 2 2 4 3 5 7 8 8 7 9 10 11 12 11 9 9 11 12 14 16 17 17 18 18 21 24 22 19 20 19 16 14 14 17 21 25 25 22 22 23 25
4 5 5 4 5 2 3 4 5 6 6 7 7 8 8 7 5 6 7 6 8 10 11 14 18 18 17 16 18 20 19 20 18 18 20 24 28 26 20 19 20 22 22
7 8 7 8 7 4 1 1 2 4 5 6 6 7 7 6 6 8 7 7 8 7 7 9 11 13 17 19 17 16 22 22 24 24 25 25 23 20 21 21 21 23 22
9 8 8 6 5 6 4 2 2 3 5 5 7 7 7 8 10 12 11 10 10 10 11 12 14 15 17 19 20 22 24 26 26 25 24 23 23 22 22 21 21 22 25
12 11 9 8 7 5 4 4 6 4 2 4 4 5 7 9 9 11 11 9 10 13 14 16 17 19 19 20 22 26 29 26 29 26 25 25 25 26 26 26 24 26 27
16 14 11 10 9 7 5 3 2 5 5 4 3 3 2 3 4 5 9 10 10 12 11 15 17 19 22 25 26 23 25 30 28 29 29 29 28 27 25 24 26 28 27
17 15 13 12 10 9 6 4 3 5 6 6 5 5 4 2 1 5 9 10 12 16 18 16 16 16 20 23 26 29 27 25 25 26 27 28 27 25 23 24 24 24 23
16 16 14 14 12 10 9 7 6 5 5 4 5 4 3 2 2 4 7 14 16 18 19 18 20 21 25 27 27 27 28 26 26 25 26 27 27 25 24 24 23 23 23
16 13 13 12 11 10 10 7 6 6 7 7 8 8 7 5 3 6 7 11 13 14 18 18 21 21 23 25 27 26 25 25 24 23 24 24 24 24 24 24 24 21 23
18 18 16 14 14 12 11 10 8 7 6 5 4 4 5 3 3 4 5 6 7 8 8 9 11 15 18 21 21 22 22 23 22 21 21 21 20 21 23 23 23 24 23
16 17 15 15 13 10 10 8 7 6 5 4 3 3 3 2 3 4 6 8 10 12 13 14 15 15 14 14 14 15 15 16 16 16 18 19 21 22 23 23 22 22 21
14 16 15 14 12 11 9 8 7 5 4 4 4 4 4 3 3 5 7 8 10 12 13 14 15 15 16 17 17 17 17 18 19 19 19 20 19 20 21 22 21 21 20
11 12 12 12 11 10 8 6 5 4 2 0 2 4 6 7 8 8 10 12 13 14 13 14 15 16 16 17 18 18 19 18 17 16 15 16 17 17 18 19 19 20 20
10 10 9 9 8 7 6 4 2 1 1 3 4 5 7 8 10 10 12 13 14 15 16 15 14 14 15 16 16 16 15 15 15 14 13 12 13 15 17 17 18 18 17
5 5 5 5 5 3 2 2 1 1 2 4 5 6 7 8 9 10 11 12 14 13 14 14 14 14 14 14 14 13 13 14 13 11 11 11 11 11 13 14 15 16 16
Wind_Direction
248 250 249 249 249 250 250 248 249 247 245 244 246 245 244 244 246 242 239 237 235 236 235 234 237 240 239 234 222 216 211 207 162 181 201 196 193 196 200 203 208 212 224
251 252 252 255 254 254 254 256 256 255 254 250 255 250 247 246 243 240 239 237 233 233 235 237 236 239 233 231 219 216 214 210 192 151 170 178 193 196 203 205 207 213 227
266 269 268 265 264 263 263 263 261 261 261 261 261 259 254 249 243 241 240 238 237 236 236 235 235 233 226 223 219 213 211 203 202 178 157 180 187 194 197 203 210 213 227
267 270 273 272 272 271 271 270 267 263 262 263 263 265 266 264 256 250 249 243 244 239 237 240 233 230 231 226 217 215 210 198 190 175 167 174 181 190 202 203 205 214 222
269 272 274 277 276 274 273 272 271 268 266 265 268 270 268 264 263 262 255 252 246 242 243 243 242 247 233 230 218 205 207 197 185 175 164 166 177 178 200 207 210 213 234
266 275 281 274 276 277 276 275 278 280 281 280 281 277 270 266 269 272 271 259 255 251 246 246 244 233 226 218 216 215 203 193 188 180 174 177 186 194 197 204 199 201 224
271 279 279 281 283 284 281 281 285 290 293 295 293 290 284 277 272 272 268 264 260 257 251 242 237 232 223 214 213 202 206 211 212 202 189 192 191 202 200 202 208 207 204
277 272 273 278 286 288 283 285 290 298 304 306 303 297 291 287 285 284 282 273 260 258 254 249 239 230 223 205 193 191 203 208 215 206 196 196 196 201 212 225 219 223 239
302 298 292 291 295 291 292 304 309 306 300 296 301 302 295 290 287 284 280 264 257 261 260 253 244 229 207 193 180 182 195 188 194 197 190 190 188 218 214 209 204 204 236
304 298 296 287 283 287 290 291 288 289 295 304 306 304 302 296 291 288 275 257 248 249 247 247 236 213 186 192 189 193 191 187 190 177 184 192 218 217 209 220 221 214 208
292 290 292 290 292 291 287 284 286 292 299 305 309 308 306 307 310 286 265 264 251 231 223 204 196 198 196 202 203 199 204 196 188 195 212 224 222 215 220 227 234 234 231
120 91 65 39 24 13 295 280 288 294 295 302 308 313 313 310 310 277 260 272 265 246 221 204 197 190 189 204 199 198 198 188 205 217 225 227 236 236 236 235 240 246 248
123 109 97 76 75 29 320 314 309 299 293 296 297 300 299 296 266 245 246 257 251 248 232 202 183 178 186 197 203 200 204 203 218 219 228 239 243 248 251 246 245 247 245
136 118 112 116 127 123 113 4 315 309 298 296 286 284 288 273 253 241 234 226 216 205 205 205 205 200 196 196 197 203 211 226 233 233 239 244 249 249 247 244 245 243 239
117 102 94 100 103 114 118 81 14 327 295 287 297 287 271 248 247 247 244 230 214 201 187 178 180 190 204 215 214 221 233 239 237 242 237 244 252 253 247 251 249 242 234
111 108 105 106 94 92 84 67 71 75 346 313 330 337 323 306 295 259 245 232 211 198 192 195 198 204 209 214 217 231 235 237 243 241 237 239 243 247 251 256 247 241 236
127 123 119 115 118 134 142 155 106 81 66 47 15 32 21 326 308 263 240 239 233 226 217 221 224 224 229 237 240 235 244 253 259 251 240 239 240 242 245 243 245 240 236
129 127 128 123 124 132 137 135 106 96 84 63 33 21 18 22 186 206 223 231 223 223 235 243 238 237 242 246 251 253 261 273 268 257 249 243 241 242 239 238 237 236 237
133 131 135 134 135 133 128 132 114 96 76 69 74 59 3 306 249 246 228 222 225 233 237 242 246 248 256 262 266 272 278 272 272 268 257 252 252 249 243 244 245 245 241
131 123 126 125 113 106 107 104 93 83 83 75 68 50 29 23 315 282 267 257 256 256 262 264 262 260 263 271 277 279 275 274 270 267 266 263 262 260 254 253 249 236 234
139 134 137 134 127 127 123 122 116 117 102 83 67 58 16 26 351 328 332 315 300 301 310 317 318 303 294 288 284 280 277 276 275 275 275 274 273 267 271 263 253 247 244
144 138 139 130 125 120 114 110 104 96 92 83 48 15 7 353 320 306 300 297 292 292 293 294 292 293 297 296 290 289 290 289 287 286 284 284 283 279 275 267 258 252 248
135 130 127 125 125 123 123 118 115 112 101 79 48 23 5 347 331 317 307 303 300 301 301 297 293 291 289 288 285 284 283 284 286 286 286 285 280 275 270 263 256 250 245
134 129 130 130 132 130 128 125 122 124 131 58 345 344 337 332 326 321 316 312 309 304 301 300 300 299 296 293 291 288 285 282 279 279 279 281 281 277 270 266 263 260 261
147 143 141 140 138 139 138 131 126 86 7 350 337 325 322 317 314 316 317 317 317 317 316 315 312 307 302 300 298 296 293 286 278 273 271 267 267 273 274 270 266 263 261
140 134 130 132 129 138 157 175 202 258 268 278 288 295 299 302 304 307 311 313 315 317 318 317 316 315 313 309 305 302 298 292 289 285 277 268 267 266 266 266 265 260 258